Weather History for Pineville, WV

Change the Weather History Date:

Sunday, July 7, 2013

  Actual Average (KBKW) Record (KBKW)
Temperature  
Mean Temperature 72 °F 71 °F  
Max Temperature 77 °F 80 °F 92 °F (1900)
Min Temperature 66 °F 61 °F 41 °F (1972)
Degree Days  
Heating Degree Days 0 0  
Month to date heating degree days 0  
Since 1 June heating degree days 39  
Since 1 July heating degree days 0  
Cooling Degree Days 6 6  
Month to date cooling degree days 42  
Year to date cooling degree days 194  
Since 1 June cooling degree days 153  
Growing Degree Days 22 (Base 50)    
Moisture  
Dew Point 70 °F    
Average Humidity 96    
Maximum Humidity 100    
Minimum Humidity 78    
Precipitation  
Precipitation 0.00 in 0.15 in 1.76 in (2005)
Month to date precipitation 1.05  
Year to date precipitation 22.21  
Snow  
Snow 0.00 in - - ()
Month to date snowfall  
Since 1 September snowfall  
Snow Depth -    
Sea Level Pressure  
Sea Level Pressure 30.22 in    
Wind  
Wind Speed - (North)    
Max Wind Speed -    
Max Gust Speed -    
Visibility 9 miles    
Events Rain    
T = Trace of Precipitation, MM = Missing Value Source: NWS Daily Summary

Daily Weather History Graph

Daily Weather History Graph

Search for Another Location

Airport:

Trip Planner

Search our weather history database for the weather conditions in past years. The results will help you decide how hot, cold, wet, or windy it might be!

Date:

Astronomy

Jul. 07, 2013 Rise Set
Actual Time 6:11 AM EDT 8:50 PM EDT
Civil Twilight 5:40 AM EDT 9:21 PM EDT
Nautical Twilight 5:02 AM EDT 9:59 PM EDT
Astronomical Twilight 4:19 AM EDT 10:42 PM EDT
Moon 5:45 AM EDT (7/7) 8:14 PM EDT (7/7)
Length of Visible Light 15h 40m
Length of Day
14h 38m
Waning Crescent, 0% of the Moon is Illuminated
Jul 7
Waning Crescent
Jul 8
New
Jul 15
First Quarter
Jul 22
Full
Jul 29
Last Quarter

Hourly Weather History & Observations

Time (EDT) Temp. Dew Point Humidity Pressure Visibility Wind Dir Wind Speed Gust Speed Precip Events Conditions
12:15 AM 70.0 °F 70.0 °F 100% 30.27 in 10.0 mi North - - N/A   Overcast
12:35 AM 69.8 °F 69.8 °F 100% 30.27 in 10.0 mi North - - N/A   Overcast
12:55 AM 69.8 °F 69.8 °F 100% 30.26 in 10.0 mi North - - N/A   Overcast
1:15 AM 69.8 °F 69.8 °F 100% 30.26 in 10.0 mi North - - N/A Rain Rain
1:35 AM 70.2 °F 70.2 °F 100% 30.26 in 5.0 mi North - - N/A Rain Light Rain
1:55 AM 70.3 °F 70.3 °F 100% 30.24 in 10.0 mi North - - N/A   Drizzle
2:15 AM 70.2 °F 70.2 °F 100% 30.24 in 10.0 mi North - - N/A   Mostly Cloudy
2:35 AM 70.2 °F 70.2 °F 100% 30.24 in 10.0 mi North - - N/A   Overcast
2:55 AM 70.5 °F 70.5 °F 100% 30.23 in 10.0 mi North - - N/A   Overcast
3:15 AM 69.8 °F 69.8 °F 100% 30.22 in 10.0 mi North - - N/A   Scattered Clouds
3:35 AM 69.6 °F 69.6 °F 100% 30.21 in 10.0 mi North - - N/A   Scattered Clouds
3:55 AM 69.3 °F 69.3 °F 100% 30.21 in 10.0 mi North - - N/A   Scattered Clouds
4:15 AM 69.8 °F 69.8 °F 100% 30.20 in 10.0 mi North - - N/A   Scattered Clouds
4:35 AM 69.3 °F 69.3 °F 100% 30.20 in 10.0 mi North - - N/A   Clear
4:55 AM 68.9 °F 68.9 °F 100% 30.19 in 10.0 mi North - - N/A   Clear
5:15 AM 68.9 °F 68.9 °F 100% 30.21 in 10.0 mi North - - N/A   Scattered Clouds
5:35 AM 68.9 °F 68.9 °F 100% 30.21 in 10.0 mi North - - N/A   Mostly Cloudy
5:55 AM 69.1 °F 69.1 °F 100% 30.20 in 10.0 mi North - - N/A   Mostly Cloudy
6:15 AM 69.1 °F 69.1 °F 100% 30.20 in 10.0 mi North - - N/A   Overcast
6:35 AM 69.6 °F 69.6 °F 100% 30.20 in 10.0 mi North - - N/A   Overcast
6:55 AM 69.8 °F 69.8 °F 100% 30.20 in 10.0 mi North - - N/A   Mostly Cloudy
7:15 AM 69.8 °F 69.8 °F 100% 30.20 in 10.0 mi North - - N/A   Mostly Cloudy
7:35 AM 70.2 °F 70.2 °F 100% 30.21 in 10.0 mi North - - N/A   Overcast
7:55 AM 70.3 °F 70.3 °F 100% 30.21 in 10.0 mi North - - N/A   Overcast
8:15 AM 71.2 °F 71.2 °F 100% 30.21 in 10.0 mi North - - N/A   Overcast
8:35 AM 71.8 °F 71.8 °F 100% 30.21 in 10.0 mi North - - N/A   Overcast
8:55 AM 72.7 °F 71.8 °F 97% 30.22 in 10.0 mi North - - N/A   Overcast
9:15 AM 73.4 °F 71.6 °F 94% 30.23 in 10.0 mi North - - N/A   Overcast
9:35 AM 73.6 °F 71.6 °F 93% 30.23 in 10.0 mi North - - N/A   Mostly Cloudy
9:55 AM 73.4 °F 72.0 °F 95% 30.23 in 10.0 mi North - - N/A   Mostly Cloudy
10:15 AM 73.4 °F 72.3 °F 96% 30.24 in 7.0 mi North - - N/A Rain Light Rain
10:35 AM 72.7 °F 71.6 °F 96% 30.24 in 10.0 mi North - - N/A   Overcast
10:55 AM 72.9 °F 71.1 °F 94% 30.25 in 7.0 mi North - - N/A Rain Light Rain
11:15 AM 72.1 °F 70.3 °F 94% 30.25 in 4.0 mi North - - N/A Rain Heavy Rain
11:35 AM 72.0 °F 70.9 °F 96% 30.25 in 7.0 mi North - - N/A Rain Light Rain
11:55 AM 71.6 °F 70.7 °F 97% 30.24 in 4.0 mi North - - N/A Rain Light Rain
12:15 PM 71.8 °F 71.1 °F 98% 30.24 in 10.0 mi North - - N/A   Overcast
12:35 PM 72.7 °F 71.1 °F 95% 30.25 in 10.0 mi North - - N/A   Overcast
12:55 PM 72.9 °F 71.1 °F 94% 30.24 in 10.0 mi North - - N/A   Overcast
1:15 PM 71.8 °F 70.7 °F 96% 30.24 in 7.0 mi North - - N/A Rain Light Rain
1:35 PM 71.1 °F 70.7 °F 99% 30.24 in 2.5 mi North - - N/A Rain Rain
1:55 PM 71.1 °F 71.1 °F 100% 30.23 in 10.0 mi North - - N/A   Overcast
2:15 PM 71.6 °F 71.1 °F 98% 30.23 in 10.0 mi North - - N/A   Overcast
2:35 PM 72.5 °F 69.8 °F 91% 30.23 in 10.0 mi North - - N/A   Scattered Clouds
2:55 PM 73.2 °F 69.6 °F 88% 30.21 in 10.0 mi North - - N/A Rain Light Rain
3:15 PM 73.2 °F 69.4 °F 88% 30.22 in 10.0 mi North - - N/A Rain Light Rain
3:35 PM 74.7 °F 70.7 °F 87% 30.21 in 10.0 mi North - - N/A   Mostly Cloudy
3:55 PM 75.2 °F 70.9 °F 86% 30.21 in 10.0 mi North - - N/A   Overcast
4:15 PM 74.7 °F 70.3 °F 86% 30.21 in 10.0 mi North - - N/A   Overcast
4:35 PM 74.3 °F 70.5 °F 88% 30.21 in 10.0 mi North - - N/A   Overcast
4:55 PM 76.1 °F 71.2 °F 85% 30.20 in 10.0 mi North - - N/A   Mostly Cloudy
5:15 PM 76.1 °F 70.9 °F 84% 30.19 in 10.0 mi North - - N/A   Scattered Clouds
5:35 PM 75.6 °F 70.7 °F 85% 30.19 in 10.0 mi North - - N/A   Mostly Cloudy
5:55 PM 75.2 °F 70.9 °F 86% 30.19 in 10.0 mi North - - N/A   Overcast
6:15 PM 74.8 °F 71.4 °F 89% 30.19 in 10.0 mi North - - N/A   Overcast
6:35 PM 76.1 °F 71.4 °F 85% 30.19 in 10.0 mi North - - N/A   Mostly Cloudy
6:55 PM 77.9 °F 70.5 °F 78% 30.19 in 10.0 mi North - - N/A   Mostly Cloudy
7:15 PM 77.2 °F 70.5 °F 80% 30.19 in 10.0 mi North - - N/A   Mostly Cloudy
7:35 PM 76.5 °F 70.7 °F 82% 30.19 in 10.0 mi North - - N/A   Mostly Cloudy
7:55 PM 74.7 °F 71.4 °F 90% 30.20 in 10.0 mi North - - N/A   Clear
8:15 PM 72.9 °F 71.6 °F 96% 30.20 in 10.0 mi North - - N/A   Scattered Clouds
8:35 PM 71.8 °F 71.1 °F 98% 30.20 in 10.0 mi North - - N/A   Scattered Clouds
8:55 PM 70.7 °F 70.3 °F 99% 30.21 in 10.0 mi North - - N/A   Clear
9:15 PM 70.0 °F 70.0 °F 100% 30.21 in 10.0 mi North - - N/A   Clear
9:35 PM 69.4 °F 69.4 °F 100% 30.22 in 10.0 mi North - - N/A   Clear
9:55 PM 68.5 °F 68.5 °F 100% 30.22 in 10.0 mi North - - N/A   Unknown
10:15 PM 68.2 °F 68.2 °F 100% 30.23 in 10.0 mi North - - N/A   Clear
10:35 PM 68.0 °F 68.0 °F 100% 30.24 in - North - - N/A   Unknown
10:55 PM 67.5 °F 67.5 °F 100% 30.24 in 10.0 mi North - - N/A   Clear
11:15 PM 66.9 °F 66.9 °F 100% 30.24 in 10.0 mi North - - N/A   Clear
11:35 PM 66.6 °F 66.6 °F 100% 30.24 in 10.0 mi North - - N/A   Mostly Cloudy
11:55 PM 67.3 °F 67.3 °F 100% 30.24 in 1.5 mi North - - N/A   Overcast